User: anonymous   Login
Location: Oshawa
(43.9000°N, 78.8670°W)
Time: 12:52:25
(UTC-04:00)
Language:

Cosmos 1821 Rocket - Orbit

View from above orbital plane
View from above orbital plane
View from above satellite
View from above satellite

Ground track
Ground track

The orbit data is extracted from the following two-line orbital elements,

1 17526U 87017B   16272.93655679 -.00000025 +00000-0 -39968-4 0  9990
2 17526 082.9017 235.4331 0039642 329.5394 083.0165 13.76787572470142
Epoch (UTC): 28 September 2016 22:28:38
Eccentricity: 0.0039642
inclination: 82.9017°
perigee height: 946 km
apogee height: 1004 km
right ascension of ascending node: 235.4331°
argument of perigee: 329.5394°
revolutions per day: 13.76787572
mean anomaly at epoch: 83.0165°
orbit number at epoch: 47014

The dashed part of the orbit path shows where the satellite is in the earth's shadow,  

DLR